GFSMW_700_temp_201.txt.gz
Temp
9 9 9 9 9 9 8 8 8 7 7 8 8 8 7 7 6 6 6 6 6 5 6 5 5 5 4 4 4 3 3 3 3 2 3 2 3 2 3 3 4 4 4
9 9 9 8 8 8 8 8 8 7 7 7 7 7 6 6 6 6 6 5 5 5 5 5 5 4 4 4 4 4 3 3 3 3 1 2 3 2 2 2 3 4 4
9 9 8 8 8 8 8 7 7 7 7 7 7 6 6 5 5 5 5 5 5 5 5 5 5 5 4 4 3 3 2 3 3 3 3 2 3 3 3 2 3 3 3
9 8 7 7 8 8 7 7 6 6 6 6 6 6 6 6 6 6 6 6 5 4 3 3 3 4 3 3 2 2 2 3 2 3 2 2 1 2 3 2 2 3 3
8 7 6 6 6 7 6 6 6 6 6 6 6 6 6 6 6 6 7 6 6 4 3 2 2 1 1 2 2 1 1 1 1 1 2 2 2 1 2 1 2 2 2
7 6 5 5 5 5 5 5 5 5 5 5 5 6 6 6 6 6 5 5 4 3 2 1 1 0 0 -0 -0 -0 -1 -1 -1 0 -1 -0 1 1 1 -0 1 1 2
5 5 5 4 4 4 5 5 5 5 5 6 6 6 6 6 6 5 5 3 3 1 0 0 -0 -0 -0 -0 -1 -1 -1 -1 -1 -1 -1 -2 -2 -0 -2 -0 0 0 0
4 4 3 3 4 4 4 4 5 4 4 4 4 5 4 3 2 2 1 1 -0 -1 -1 -1 -1 -1 -1 -1 -1 -1 -2 -3 -2 -2 -1 -0 -0 -0 -1 -2 -1 -1 -0
3 2 2 2 3 3 3 3 3 3 3 4 3 2 1 1 0 -0 -0 -1 -1 -1 -1 -1 -1 -1 -1 -2 -2 -3 -3 -2 -3 -4 -4 -4 -2 -2 -2 -3 -2 -2 -2
2 2 2 2 2 2 2 2 3 3 2 2 1 1 0 -1 -1 -1 -1 -1 -1 -1 -2 -2 -2 -2 -3 -3 -3 -4 -3 -3 -3 -4 -3 -4 -3 -5 -3 -3 -3 -3 -3
1 1 1 1 1 1 1 2 1 1 1 0 -1 -1 -1 -2 -2 -2 -2 -3 -3 -3 -3 -3 -3 -3 -3 -4 -4 -4 -4 -4 -5 -4 -3 -3 -4 -3 -4 -3 -3 -3 -3
1 1 1 1 1 1 1 1 -0 -0 -1 -2 -1 -1 -2 -1 -1 -2 -3 -4 -4 -3 -3 -3 -4 -4 -5 -5 -5 -5 -5 -5 -4 -4 -4 -5 -4 -5 -4 -5 -3 -4 -3
0 1 1 1 1 1 -0 -0 -1 -2 -2 -2 -2 -2 -2 -2 -2 -3 -4 -3 -3 -3 -3 -4 -4 -5 -5 -4 -4 -4 -4 -4 -4 -4 -4 -4 -5 -5 -4 -4 -4 -4 -4
1 1 -0 0 0 -0 -1 -1 -2 -2 -2 -2 -2 -2 -2 -3 -4 -3 -3 -3 -3 -3 -4 -5 -4 -4 -4 -5 -4 -4 -4 -3 -3 -3 -3 -4 -4 -4 -5 -4 -4 -4 -4
-0 -1 -1 -1 -1 -1 -2 -2 -2 -2 -2 -2 -2 -2 -3 -4 -4 -4 -4 -4 -4 -5 -5 -4 -4 -4 -5 -5 -6 -7 -6 -6 -6 -5 -4 -4 -4 -4 -4 -3 -3 -3 -3
-1 -1 -1 -1 -1 -2 -2 -3 -3 -3 -3 -3 -3 -3 -4 -4 -4 -4 -4 -4 -4 -4 -4 -4 -4 -4 -5 -6 -7 -7 -7 -6 -6 -4 -4 -4 -4 -4 -4 -4 -3 -3 -3
-1 -1 -1 -1 -2 -3 -3 -3 -3 -3 -3 -3 -3 -4 -4 -4 -4 -4 -5 -4 -4 -4 -3 -4 -5 -5 -6 -7 -7 -6 -6 -6 -5 -4 -5 -3 -4 -4 -4 -4 -4 -4 -4
-2 -2 -3 -3 -3 -3 -3 -4 -4 -3 -3 -3 -4 -4 -4 -4 -4 -4 -4 -4 -4 -3 -4 -5 -6 -6 -7 -7 -7 -6 -6 -6 -6 -6 -6 -5 -5 -5 -4 -4 -4 -4 -5
-3 -3 -3 -4 -4 -4 -4 -4 -3 -3 -3 -4 -4 -4 -4 -4 -5 -5 -5 -4 -4 -5 -5 -7 -6 -7 -8 -8 -7 -7 -6 -7 -8 -7 -7 -6 -6 -5 -5 -5 -5 -6 -6
-4 -4 -4 -4 -4 -4 -4 -3 -3 -3 -4 -5 -5 -5 -5 -4 -5 -5 -4 -5 -6 -6 -6 -7 -7 -8 -8 -8 -8 -7 -7 -8 -7 -7 -8 -8 -7 -7 -6 -6 -6 -6 -6
-4 -4 -4 -4 -4 -5 -4 -4 -4 -5 -5 -5 -5 -5 -5 -4 -5 -5 -6 -6 -6 -6 -7 -8 -8 -9 -9 -8 -9 -8 -8 -8 -9 -9 -8 -9 -8 -8 -7 -7 -7 -7 -7
-4 -5 -5 -5 -5 -5 -5 -5 -5 -5 -5 -5 -5 -5 -5 -5 -5 -6 -6 -6 -7 -7 -7 -8 -9 -9 -9 -9 -9 -8 -8 -9 -9 -9 -9 -9 -9 -9 -8 -8 -8 -8 -8
-5 -5 -5 -6 -6 -6 -5 -5 -6 -6 -6 -6 -5 -5 -5 -5 -6 -6 -6 -7 -7 -7 -8 -8 -9 -9 -9 -9 -9 -9 -9 -9 -9 -9 -9 -9 -9 -9 -9 -9 -8 -8 -8
-5 -6 -6 -6 -6 -6 -6 -6 -6 -7 -6 -6 -5 -5 -4 -6 -6 -6 -7 -8 -7 -8 -8 -8 -9 -9 -9 -9 -9 -9 -9 -9 -9 -9 -9 -9 -9 -9 -9 -9 -9 -9 -9
-6 -7 -6 -6 -6 -6 -6 -7 -6 -7 -6 -6 -5 -4 -5 -6 -7 -8 -8 -8 -8 -8 -8 -8 -8 -9 -9 -9 -9 -9 -9 -9 -9 -9 -9 -9 -9 -8 -8 -8 -8 -8 -8
-7 -7 -7 -7 -7 -7 -7 -7 -7 -6 -6 -5 -5 -5 -5 -6 -8 -8 -8 -8 -8 -8 -8 -8 -8 -8 -8 -8 -9 -9 -9 -9 -9 -9 -8 -8 -8 -8 -8 -8 -8 -9 -9

GFSMW_700_temp_204.txt.gz
Temp
9 9 9 9 9 8 8 8 8 8 8 7 7 7 7 7 6 6 6 6 6 6 6 6 6 6 6 6 6 5 5 4 4 3 3 3 3 3 2 2 2 3 3
9 9 9 9 9 8 8 8 8 8 8 7 7 7 7 7 7 6 6 5 5 5 5 5 5 5 5 5 5 6 4 4 3 4 3 3 3 2 3 2 2 2 2
8 9 9 9 9 8 8 8 7 7 7 7 7 7 7 6 6 5 5 5 5 5 5 5 5 5 4 4 4 4 3 2 2 2 2 3 3 2 2 1 1 2 2
8 9 9 9 9 8 7 7 7 6 6 6 6 6 6 5 5 4 5 5 6 6 6 5 4 3 3 2 2 2 2 2 1 1 1 1 1 2 2 1 1 1 2
8 8 8 8 8 7 7 6 6 5 5 5 5 5 5 5 5 5 6 6 6 6 6 5 4 3 2 2 1 1 1 1 1 -0 -0 0 0 -0 0 1 0 0 1
8 7 6 6 7 6 5 5 5 4 4 4 4 4 5 5 5 5 5 5 6 5 4 3 2 1 1 1 0 0 0 -0 -0 -0 -0 -1 -0 0 -0 -1 -0 0 0
7 6 6 6 6 5 4 4 4 4 4 4 4 4 5 4 5 5 5 5 5 4 3 1 1 0 -0 -1 -1 -1 -0 -0 -1 -2 -2 -2 -3 -3 -3 -3 -2 -1 -1
7 5 4 4 3 3 3 3 3 3 4 4 4 3 4 4 5 5 5 4 3 2 2 1 0 -0 -1 -1 -2 -2 -2 -2 -2 -2 -3 -4 -3 -4 -5 -4 -3 -2 -2
6 4 3 3 3 2 3 3 3 3 3 2 3 3 4 4 4 4 3 3 2 1 1 0 0 -1 -2 -3 -3 -3 -3 -3 -3 -3 -3 -3 -3 -4 -4 -5 -4 -5 -4
5 3 3 2 2 2 2 2 2 2 2 2 3 3 3 4 3 2 1 1 0 0 -0 -1 -2 -3 -3 -3 -3 -3 -3 -4 -4 -4 -4 -4 -4 -5 -5 -5 -5 -4 -5
4 3 2 1 1 1 2 1 1 2 2 2 2 2 2 2 1 0 -0 -0 -0 -1 -2 -2 -2 -2 -2 -3 -3 -3 -4 -4 -4 -4 -4 -4 -4 -4 -5 -6 -6 -5 -5
3 2 1 1 1 1 1 1 1 1 1 1 1 1 1 0 -0 -0 -1 -1 -1 -2 -2 -2 -2 -3 -3 -3 -4 -4 -4 -4 -4 -4 -5 -5 -5 -5 -6 -6 -6 -5 -4
2 1 1 0 0 0 0 1 0 0 0 1 0 -0 -0 -1 -1 -1 -1 -2 -2 -2 -2 -3 -3 -3 -3 -3 -3 -4 -4 -5 -5 -5 -5 -5 -5 -5 -6 -6 -6 -6 -6
2 1 0 0 0 -0 -0 -0 -0 -0 -0 -1 -1 -1 -2 -2 -1 -1 -2 -2 -3 -3 -3 -3 -2 -3 -3 -3 -4 -4 -5 -5 -6 -7 -7 -7 -7 -5 -5 -6 -7 -6 -5
1 0 -0 -0 -0 -1 -1 -1 -1 -1 -2 -2 -2 -2 -2 -2 -2 -2 -3 -3 -3 -3 -3 -2 -3 -3 -4 -4 -4 -5 -6 -7 -7 -6 -6 -6 -7 -7 -6 -6 -6 -6 -6
1 -0 -0 -1 -1 -1 -2 -3 -2 -3 -2 -2 -2 -2 -2 -2 -2 -3 -3 -4 -4 -3 -3 -2 -3 -4 -5 -4 -6 -7 -8 -8 -7 -7 -7 -7 -6 -5 -5 -6 -5 -5 -4
-0 -0 -1 -1 -2 -3 -3 -3 -3 -3 -2 -2 -2 -2 -2 -2 -3 -3 -3 -4 -4 -4 -3 -3 -5 -5 -6 -6 -7 -7 -8 -8 -7 -7 -6 -5 -5 -5 -4 -5 -5 -5 -5
-1 -2 -2 -3 -2 -3 -3 -3 -3 -3 -3 -3 -3 -2 -3 -3 -3 -3 -4 -3 -4 -4 -5 -6 -6 -6 -7 -6 -7 -8 -8 -8 -7 -6 -6 -5 -5 -4 -4 -5 -6 -6 -6
-3 -2 -3 -3 -3 -5 -4 -4 -3 -3 -3 -3 -3 -3 -3 -3 -3 -4 -3 -4 -4 -6 -6 -6 -5 -7 -7 -7 -8 -8 -8 -8 -7 -7 -7 -6 -5 -3 -4 -5 -5 -6 -5
-3 -3 -4 -3 -4 -4 -4 -4 -4 -4 -3 -3 -3 -4 -4 -4 -4 -4 -5 -5 -5 -7 -7 -6 -7 -7 -8 -8 -8 -9 -8 -8 -8 -7 -7 -7 -6 -5 -5 -5 -5 -4 -5
-3 -3 -4 -4 -4 -4 -5 -4 -4 -4 -4 -4 -4 -4 -4 -4 -5 -5 -5 -6 -6 -7 -6 -7 -6 -7 -9 -9 -9 -9 -9 -8 -8 -8 -8 -8 -8 -7 -7 -7 -6 -6 -6
-3 -4 -5 -5 -5 -5 -5 -5 -4 -4 -4 -4 -5 -5 -5 -5 -5 -5 -6 -6 -7 -7 -7 -6 -7 -8 -9 -9 -9 -9 -9 -9 -8 -9 -9 -9 -8 -8 -8 -8 -7 -7 -7
-4 -5 -5 -5 -6 -5 -5 -5 -4 -5 -5 -5 -5 -5 -5 -5 -6 -5 -7 -7 -7 -7 -7 -7 -7 -8 -8 -9 -9 -9 -9 -9 -9 -9 -9 -10 -9 -9 -8 -8 -8 -8 -9
-5 -5 -6 -6 -6 -5 -5 -5 -4 -5 -5 -6 -6 -6 -6 -6 -5 -6 -7 -7 -7 -7 -7 -7 -8 -8 -8 -9 -9 -9 -9 -9 -9 -9 -9 -9 -9 -9 -9 -9 -9 -9 -9
-5 -6 -6 -6 -6 -5 -5 -5 -5 -5 -6 -6 -5 -6 -6 -5 -6 -7 -7 -7 -7 -8 -8 -8 -8 -8 -8 -8 -9 -9 -9 -9 -9 -10 -9 -9 -9 -9 -9 -9 -9 -9 -9
-6 -7 -7 -7 -6 -6 -6 -5 -6 -6 -6 -6 -6 -6 -6 -6 -5 -7 -7 -7 -7 -8 -8 -8 -8 -8 -8 -9 -9 -9 -9 -9 -9 -10 -10 -9 -9 -9 -9 -9 -9 -9 -9

GFSMW_700_temp_207.txt.gz
Temp
10 10 10 9 9 9 9 8 8 8 8 8 7 7 7 7 7 6 6 6 7 7 6 6 6 6 6 5 5 5 5 5 5 5 6 6 3 3 4 3 3 3 3
9 9 10 9 9 9 9 9 8 8 8 7 7 7 7 7 7 7 7 6 6 6 5 5 5 5 5 5 5 5 5 5 5 4 4 4 4 3 2 3 3 2 3
9 9 9 9 9 9 9 8 8 8 7 7 7 7 6 6 6 6 6 5 5 5 5 5 5 5 5 5 5 4 4 3 3 3 2 2 3 4 3 2 2 2 2
9 9 8 8 9 9 8 8 8 7 7 6 6 6 5 5 5 5 4 4 4 5 5 5 5 5 5 4 3 2 2 1 2 1 1 1 1 1 2 2 1 1 2
9 9 8 8 8 8 7 7 6 6 6 5 5 5 5 5 4 4 4 4 5 5 5 5 5 5 4 4 3 2 1 1 1 1 0 0 0 1 1 2 2 2 2
9 8 8 8 7 6 6 6 5 5 4 4 4 4 4 4 4 4 4 4 5 5 5 5 5 4 3 2 2 1 1 0 -0 -1 -1 -1 -1 -1 -2 -3 -2 -2 -3
8 8 8 7 7 6 5 4 4 4 3 3 3 3 3 4 4 4 4 4 4 5 5 5 3 2 2 1 1 0 -0 -1 -2 -2 -2 -2 -3 -3 -4 -5 -4 -5 -4
9 9 8 7 6 5 4 4 3 3 3 3 3 3 3 3 3 4 3 4 4 4 4 3 2 1 1 0 -1 -2 -2 -2 -3 -3 -3 -3 -3 -3 -4 -5 -5 -5 -6
9 8 7 6 5 4 3 3 3 3 3 3 2 2 2 3 3 3 3 3 3 2 2 2 1 1 -1 -2 -2 -2 -2 -2 -2 -3 -3 -4 -4 -4 -4 -5 -6 -5 -6
8 8 7 5 4 3 3 2 2 2 2 2 1 2 2 2 2 2 3 2 1 1 1 1 0 -1 -1 -2 -2 -2 -2 -3 -3 -4 -4 -4 -4 -5 -4 -5 -6 -6 -6
8 7 6 5 3 2 2 2 2 2 1 1 1 1 1 2 2 2 2 1 1 1 1 -0 -1 -2 -2 -2 -2 -2 -2 -3 -3 -4 -4 -4 -4 -5 -5 -5 -5 -7 -6
7 7 6 4 3 2 1 1 1 1 1 1 1 1 1 1 2 1 1 0 -0 -0 -1 -2 -2 -2 -2 -2 -2 -2 -3 -3 -3 -3 -4 -4 -4 -5 -5 -6 -6 -7 -6
6 6 4 3 2 1 1 0 0 0 0 0 0 0 1 1 0 0 -0 -1 -1 -1 -2 -2 -3 -2 -2 -2 -2 -2 -2 -3 -3 -4 -4 -5 -6 -6 -7 -7 -7 -7 -7
6 5 4 2 1 0 0 -0 -0 0 -0 -0 -0 0 0 -0 -0 -1 -1 -1 -1 -2 -2 -3 -3 -2 -2 -2 -2 -3 -3 -3 -4 -5 -6 -6 -7 -7 -7 -7 -7 -7 -6
5 4 3 1 1 0 -0 -0 -1 -1 -1 -1 -1 -1 -1 -1 -1 -2 -2 -2 -2 -2 -3 -3 -3 -2 -3 -3 -3 -4 -4 -5 -5 -6 -6 -7 -7 -7 -7 -7 -7 -7 -7
4 3 1 -0 -1 -1 -1 -1 -2 -2 -2 -2 -2 -2 -1 -2 -2 -2 -2 -2 -2 -2 -3 -2 -2 -3 -4 -4 -4 -4 -5 -6 -6 -7 -7 -7 -7 -7 -6 -6 -7 -7 -6
2 0 -0 -1 -2 -2 -2 -2 -2 -2 -2 -3 -2 -2 -2 -2 -2 -2 -2 -2 -2 -3 -2 -3 -3 -4 -4 -4 -5 -6 -6 -7 -7 -7 -7 -8 -8 -7 -6 -6 -6 -6 -6
-0 -2 -3 -3 -3 -3 -3 -3 -3 -4 -4 -3 -3 -2 -2 -2 -2 -2 -2 -2 -3 -2 -2 -4 -4 -4 -4 -5 -6 -7 -7 -8 -8 -8 -8 -7 -7 -6 -5 -5 -5 -5 -6
-0 -3 -3 -5 -5 -5 -3 -5 -5 -4 -4 -3 -3 -2 -3 -2 -3 -3 -3 -3 -3 -3 -3 -4 -4 -5 -5 -6 -7 -7 -8 -8 -9 -8 -8 -7 -7 -6 -5 -5 -4 -5 -6
-2 -3 -3 -5 -5 -4 -5 -6 -5 -4 -3 -3 -3 -3 -3 -3 -4 -4 -4 -4 -3 -4 -4 -4 -5 -6 -6 -7 -8 -8 -9 -9 -9 -8 -7 -7 -6 -6 -5 -5 -5 -6 -5
-3 -4 -4 -4 -4 -4 -6 -5 -4 -3 -3 -3 -3 -3 -3 -4 -4 -4 -4 -4 -4 -5 -5 -5 -6 -6 -7 -7 -8 -9 -9 -8 -9 -8 -8 -7 -7 -7 -6 -6 -6 -5 -5
-1 -3 -4 -4 -4 -6 -5 -5 -4 -4 -3 -3 -4 -4 -4 -4 -4 -4 -4 -4 -5 -5 -6 -7 -7 -7 -7 -7 -8 -9 -9 -9 -9 -8 -8 -8 -8 -8 -8 -7 -7 -7 -7
-2 -3 -4 -5 -6 -5 -5 -4 -4 -4 -4 -4 -4 -5 -5 -4 -4 -5 -5 -6 -6 -6 -7 -8 -8 -8 -7 -8 -8 -9 -9 -9 -9 -9 -9 -9 -8 -8 -8 -8 -8 -8 -8
-3 -4 -5 -5 -5 -5 -5 -5 -5 -5 -4 -5 -5 -5 -5 -5 -5 -5 -6 -6 -7 -8 -8 -8 -8 -7 -7 -8 -8 -8 -9 -9 -9 -9 -9 -9 -8 -8 -8 -8 -8 -9 -8
-5 -5 -6 -6 -6 -6 -6 -5 -5 -5 -5 -5 -5 -5 -5 -5 -5 -5 -6 -6 -7 -8 -8 -8 -8 -7 -7 -8 -8 -8 -8 -9 -9 -9 -9 -9 -9 -9 -9 -9 -8 -8 -8
-5 -5 -5 -6 -6 -6 -6 -5 -5 -5 -5 -6 -6 -6 -6 -5 -6 -5 -6 -7 -7 -7 -7 -8 -8 -7 -7 -8 -8 -8 -8 -8 -8 -9 -9 -9 -9 -9 -9 -9 -9 -9 -9

GFSMW_700_temp_210.txt.gz
Temp
11 10 10 10 9 9 9 9 9 8 8 8 8 8 7 7 7 7 7 7 7 7 7 6 6 6 6 6 6 5 5 5 5 5 6 6 6 5 5 5 3 3 3
11 10 10 10 10 9 9 9 9 8 8 8 8 7 7 7 7 6 6 6 6 6 6 6 6 6 5 5 5 5 5 5 5 5 5 6 5 5 4 4 4 4 2
10 10 10 10 10 9 9 9 9 8 8 8 7 7 7 7 6 6 6 6 5 5 5 5 5 4 5 5 5 5 5 5 4 4 3 4 4 3 3 3 3 4 3
10 10 10 10 9 9 9 8 8 8 8 7 7 7 6 6 6 5 5 5 5 4 4 4 4 4 5 5 5 5 4 4 4 3 2 2 1 2 2 2 3 3 3
10 10 10 10 9 9 9 8 8 8 8 7 6 6 6 5 4 4 4 4 4 4 4 4 4 4 5 5 5 4 3 3 3 2 1 1 0 0 -0 1 0 0 1
11 10 10 10 10 9 8 8 7 7 6 5 5 5 5 4 4 4 3 3 3 4 4 4 4 4 4 4 4 3 3 2 2 1 1 -0 -1 -1 -3 -3 -2 -2 -2
10 11 9 10 9 9 8 7 6 5 5 4 4 4 4 3 3 3 3 3 3 3 4 4 4 4 4 3 3 3 2 1 1 -0 -1 -2 -2 -3 -3 -4 -3 -3 -3
9 9 9 9 8 8 7 6 5 4 4 4 3 3 3 3 3 3 3 3 3 3 3 3 4 3 3 3 2 1 1 -0 -1 -1 -2 -2 -2 -3 -3 -3 -4 -4 -4
10 9 9 8 8 7 6 5 4 3 3 3 3 2 2 3 3 3 3 3 3 3 3 3 2 2 2 1 1 -0 -1 -1 -1 -2 -2 -2 -2 -3 -4 -4 -5 -5 -4
9 9 9 8 9 7 5 4 3 2 2 2 2 2 2 2 2 2 2 2 2 2 2 2 2 1 1 -0 -1 -1 -1 -2 -1 -1 -1 -2 -3 -3 -4 -5 -5 -5 -5
8 8 8 8 8 6 5 4 3 2 2 2 2 2 2 1 1 1 1 2 2 1 1 1 1 0 -1 -1 -1 -2 -2 -1 -1 -1 -1 -2 -2 -3 -3 -4 -5 -6 -7
7 7 8 7 7 6 5 3 2 2 1 1 1 1 1 1 1 1 1 1 1 1 1 1 0 -1 -1 -2 -2 -2 -1 -1 -1 -2 -2 -3 -3 -4 -4 -5 -5 -7 -8
7 7 7 7 6 6 4 3 2 1 1 1 0 0 0 0 0 0 0 0 1 1 0 -0 -1 -2 -2 -2 -2 -2 -2 -2 -2 -3 -4 -4 -5 -5 -6 -7 -7 -7 -7
7 7 6 6 6 5 3 2 1 0 0 0 -0 -0 -0 -0 -0 -0 0 0 0 0 -0 -1 -2 -2 -2 -2 -2 -2 -3 -3 -3 -4 -4 -5 -6 -6 -7 -7 -7 -8 -8
6 6 6 5 5 4 2 0 -0 -0 -0 -1 -1 -1 -1 -1 -0 -0 -0 -0 -0 -1 -1 -2 -2 -2 -2 -2 -3 -3 -3 -3 -4 -4 -5 -6 -7 -7 -7 -7 -7 -7 -7
6 5 5 5 4 3 1 -0 -1 -2 -2 -1 -1 -2 -1 -1 -1 -1 -0 -1 -1 -1 -2 -2 -2 -2 -3 -3 -3 -3 -4 -4 -5 -5 -6 -7 -7 -7 -7 -7 -8 -8 -7
5 4 4 4 3 1 -0 -1 -1 -2 -2 -2 -2 -2 -1 -1 -1 -1 -2 -2 -2 -2 -3 -3 -2 -3 -3 -4 -4 -4 -4 -5 -6 -6 -6 -6 -7 -8 -7 -7 -7 -6 -6
3 4 4 3 2 -0 -3 -3 -2 -4 -3 -3 -3 -2 -2 -2 -2 -2 -2 -2 -2 -3 -3 -3 -3 -3 -4 -4 -4 -4 -5 -5 -6 -7 -7 -7 -8 -7 -7 -6 -5 -5 -5
3 3 3 2 -1 -2 -4 -4 -3 -4 -5 -3 -3 -2 -2 -2 -3 -3 -3 -3 -3 -3 -3 -3 -4 -4 -4 -4 -3 -5 -6 -6 -7 -8 -8 -8 -8 -7 -6 -6 -5 -5 -5
2 2 1 -1 -2 -2 -5 -4 -4 -4 -4 -4 -3 -3 -3 -3 -3 -3 -3 -3 -3 -3 -3 -4 -5 -5 -5 -5 -5 -5 -6 -7 -7 -8 -8 -8 -7 -7 -6 -5 -3 -5 -5
-0 -2 -2 -1 -2 -3 -5 -6 -5 -5 -5 -4 -3 -3 -4 -4 -4 -4 -4 -4 -3 -4 -5 -5 -5 -5 -6 -6 -5 -6 -7 -7 -7 -8 -8 -8 -7 -7 -7 -5 -3 -6 -6
-1 -1 -1 -2 -3 -4 -5 -5 -6 -5 -4 -4 -4 -4 -4 -4 -4 -4 -4 -4 -4 -5 -6 -6 -6 -6 -6 -6 -6 -7 -7 -8 -8 -8 -8 -8 -8 -7 -7 -6 -6 -6 -7
-1 -1 -2 -3 -4 -4 -5 -6 -6 -5 -5 -4 -4 -4 -4 -4 -4 -4 -4 -4 -5 -6 -5 -6 -6 -6 -6 -6 -7 -8 -8 -8 -8 -8 -8 -8 -8 -8 -8 -8 -7 -7 -7
-1 -1 -2 -4 -5 -5 -6 -6 -5 -5 -5 -5 -4 -4 -4 -4 -4 -4 -5 -5 -5 -5 -5 -6 -6 -6 -6 -6 -7 -7 -7 -8 -8 -8 -8 -8 -8 -8 -8 -8 -8 -8 -8
-1 -3 -4 -5 -6 -7 -6 -6 -6 -5 -5 -5 -5 -5 -5 -4 -4 -5 -5 -5 -5 -5 -6 -6 -6 -6 -6 -7 -7 -7 -7 -8 -8 -8 -8 -8 -8 -8 -8 -8 -8 -8 -8
-3 -4 -5 -6 -6 -6 -6 -6 -6 -6 -5 -5 -5 -5 -5 -5 -5 -5 -5 -5 -5 -5 -6 -6 -6 -6 -6 -7 -7 -7 -7 -7 -8 -8 -8 -8 -8 -8 -9 -9 -9 -9 -9